owner,sensor,date,latitude,longitude,relative_humidity,qcFlag 
COMPS,ioos:station:USF.COMPS:ARP:1,2016-07-01T00:00:00Z,28.4330,-82.6670,76.06,1111122 
COMPS,ioos:station:USF.COMPS:ARP:1,2016-07-01T00:06:00Z,28.4330,-82.6670,76.69,1111122 
COMPS,ioos:station:USF.COMPS:ARP:1,2016-07-01T00:12:00Z,28.4330,-82.6670,77.96,1111122 
COMPS,ioos:station:USF.COMPS:ARP:1,2016-07-01T00:18:00Z,28.4330,-82.6670,78.29,1111122 
COMPS,ioos:station:USF.COMPS:ARP:1,2016-07-01T00:24:00Z,28.4330,-82.6670,78.91,1111122 
COMPS,ioos:station:USF.COMPS:ARP:1,2016-07-01T00:30:00Z,28.4330,-82.6670,78.54,1111122 
COMPS,ioos:station:USF.COMPS:ARP:1,2016-07-01T00:36:00Z,28.4330,-82.6670,78.83,1111122 
COMPS,ioos:station:USF.COMPS:ARP:1,2016-07-01T00:42:00Z,28.4330,-82.6670,79.48,1111122 
COMPS,ioos:station:USF.COMPS:ARP:1,2016-07-01T00:48:00Z,28.4330,-82.6670,80.76,1111122 
COMPS,ioos:station:USF.COMPS:ARP:1,2016-07-01T00:54:00Z,28.4330,-82.6670,81.76,1111122 
COMPS,ioos:station:USF.COMPS:ARP:1,2016-07-01T01:00:00Z,28.4330,-82.6670,82.17,1111122 
COMPS,ioos:station:USF.COMPS:ARP:1,2016-07-01T01:06:00Z,28.4330,-82.6670,83.03,1111122 
COMPS,ioos:station:USF.COMPS:ARP:1,2016-07-01T01:12:00Z,28.4330,-82.6670,83.18,1111122 
COMPS,ioos:station:USF.COMPS:ARP:1,2016-07-01T01:18:00Z,28.4330,-82.6670,83.52,1111122 
COMPS,ioos:station:USF.COMPS:ARP:1,2016-07-01T01:24:00Z,28.4330,-82.6670,83.5,1111122 
COMPS,ioos:station:USF.COMPS:ARP:1,2016-07-01T01:30:00Z,28.4330,-82.6670,83.63,1111122 
COMPS,ioos:station:USF.COMPS:ARP:1,2016-07-01T01:36:00Z,28.4330,-82.6670,84.11,1111122 
COMPS,ioos:station:USF.COMPS:ARP:1,2016-07-01T01:42:00Z,28.4330,-82.6670,84.76,1111122 
COMPS,ioos:station:USF.COMPS:ARP:1,2016-07-01T01:48:00Z,28.4330,-82.6670,84.85,1111122 
COMPS,ioos:station:USF.COMPS:ARP:1,2016-07-01T01:54:00Z,28.4330,-82.6670,84.95,1111122 
COMPS,ioos:station:USF.COMPS:ARP:1,2016-07-01T02:00:00Z,28.4330,-82.6670,85.06,1111122 
COMPS,ioos:station:USF.COMPS:ARP:1,2016-07-01T02:06:00Z,28.4330,-82.6670,84.07,1111122 
COMPS,ioos:station:USF.COMPS:ARP:1,2016-07-01T02:12:00Z,28.4330,-82.6670,82.48,1111122 
COMPS,ioos:station:USF.COMPS:ARP:1,2016-07-01T02:18:00Z,28.4330,-82.6670,81.83,1111122 
COMPS,ioos:station:USF.COMPS:ARP:1,2016-07-01T02:24:00Z,28.4330,-82.6670,81.36,1111122 
COMPS,ioos:station:USF.COMPS:ARP:1,2016-07-01T02:30:00Z,28.4330,-82.6670,82.14,1111122 
COMPS,ioos:station:USF.COMPS:ARP:1,2016-07-01T02:36:00Z,28.4330,-82.6670,81.8,1111122 
COMPS,ioos:station:USF.COMPS:ARP:1,2016-07-01T02:42:00Z,28.4330,-82.6670,82.3,1111122 
COMPS,ioos:station:USF.COMPS:ARP:1,2016-07-01T02:48:00Z,28.4330,-82.6670,82.78,1111122 
COMPS,ioos:station:USF.COMPS:ARP:1,2016-07-01T02:54:00Z,28.4330,-82.6670,84.14,1111122 
COMPS,ioos:station:USF.COMPS:ARP:1,2016-07-01T03:00:00Z,28.4330,-82.6670,87.54,1111122 
COMPS,ioos:station:USF.COMPS:ARP:1,2016-07-01T03:06:00Z,28.4330,-82.6670,89.9,1111122 
COMPS,ioos:station:USF.COMPS:ARP:1,2016-07-01T03:12:00Z,28.4330,-82.6670,91.04,1111122 
COMPS,ioos:station:USF.COMPS:ARP:1,2016-07-01T03:18:00Z,28.4330,-82.6670,91.63,1111122 
COMPS,ioos:station:USF.COMPS:ARP:1,2016-07-01T03:24:00Z,28.4330,-82.6670,92.07,1111122 
COMPS,ioos:station:USF.COMPS:ARP:1,2016-07-01T03:30:00Z,28.4330,-82.6670,92.48,1111122 
COMPS,ioos:station:USF.COMPS:ARP:1,2016-07-01T03:36:00Z,28.4330,-82.6670,92.92,1111122 
COMPS,ioos:station:USF.COMPS:ARP:1,2016-07-01T03:42:00Z,28.4330,-82.6670,93.13,1111122 
COMPS,ioos:station:USF.COMPS:ARP:1,2016-07-01T03:48:00Z,28.4330,-82.6670,93.46,1111122 
COMPS,ioos:station:USF.COMPS:ARP:1,2016-07-01T03:54:00Z,28.4330,-82.6670,93.73,1111122 
COMPS,ioos:station:USF.COMPS:ARP:1,2016-07-01T04:00:00Z,28.4330,-82.6670,93.98,1111122 
COMPS,ioos:station:USF.COMPS:ARP:1,2016-07-01T04:06:00Z,28.4330,-82.6670,94.12,1111122 
COMPS,ioos:station:USF.COMPS:ARP:1,2016-07-01T04:12:00Z,28.4330,-82.6670,94.38,1111122 
COMPS,ioos:station:USF.COMPS:ARP:1,2016-07-01T04:18:00Z,28.4330,-82.6670,94.35,1111122 
COMPS,ioos:station:USF.COMPS:ARP:1,2016-07-01T04:24:00Z,28.4330,-82.6670,94.48,1111122 
COMPS,ioos:station:USF.COMPS:ARP:1,2016-07-01T04:30:00Z,28.4330,-82.6670,94.65,1111122 
COMPS,ioos:station:USF.COMPS:ARP:1,2016-07-01T04:36:00Z,28.4330,-82.6670,94.77,1111122 
COMPS,ioos:station:USF.COMPS:ARP:1,2016-07-01T04:42:00Z,28.4330,-82.6670,94.93,1111122 
COMPS,ioos:station:USF.COMPS:ARP:1,2016-07-01T04:48:00Z,28.4330,-82.6670,95.15,1111122 
COMPS,ioos:station:USF.COMPS:ARP:1,2016-07-01T04:54:00Z,28.4330,-82.6670,94.99,1111122 
COMPS,ioos:station:USF.COMPS:ARP:1,2016-07-01T05:00:00Z,28.4330,-82.6670,95.16,1111122 
COMPS,ioos:station:USF.COMPS:ARP:1,2016-07-01T05:06:00Z,28.4330,-82.6670,95.35,1111122 
COMPS,ioos:station:USF.COMPS:ARP:1,2016-07-01T05:12:00Z,28.4330,-82.6670,95.51,1111122 
COMPS,ioos:station:USF.COMPS:ARP:1,2016-07-01T05:18:00Z,28.4330,-82.6670,95.55,1111122 
COMPS,ioos:station:USF.COMPS:ARP:1,2016-07-01T05:24:00Z,28.4330,-82.6670,95.55,1111122 
COMPS,ioos:station:USF.COMPS:ARP:1,2016-07-01T05:30:00Z,28.4330,-82.6670,95.56,1111122 
COMPS,ioos:station:USF.COMPS:ARP:1,2016-07-01T05:36:00Z,28.4330,-82.6670,95.62,1111122 
COMPS,ioos:station:USF.COMPS:ARP:1,2016-07-01T05:42:00Z,28.4330,-82.6670,95.63,1111122 
COMPS,ioos:station:USF.COMPS:ARP:1,2016-07-01T05:48:00Z,28.4330,-82.6670,95.67,1111122 
COMPS,ioos:station:USF.COMPS:ARP:1,2016-07-01T05:54:00Z,28.4330,-82.6670,95.67,1111122 
COMPS,ioos:station:USF.COMPS:ARP:1,2016-07-01T06:00:00Z,28.4330,-82.6670,95.78,1111122 
COMPS,ioos:station:USF.COMPS:ARP:1,2016-07-01T06:06:00Z,28.4330,-82.6670,95.7,1111122 
COMPS,ioos:station:USF.COMPS:ARP:1,2016-07-01T06:12:00Z,28.4330,-82.6670,95.72,1111122 
COMPS,ioos:station:USF.COMPS:ARP:1,2016-07-01T06:18:00Z,28.4330,-82.6670,95.85,1111122 
COMPS,ioos:station:USF.COMPS:ARP:1,2016-07-01T06:24:00Z,28.4330,-82.6670,95.78,1111122 
COMPS,ioos:station:USF.COMPS:ARP:1,2016-07-01T06:30:00Z,28.4330,-82.6670,95.82,1111122 
COMPS,ioos:station:USF.COMPS:ARP:1,2016-07-01T06:36:00Z,28.4330,-82.6670,95.79,1111122 
COMPS,ioos:station:USF.COMPS:ARP:1,2016-07-01T06:42:00Z,28.4330,-82.6670,95.7,1111122 
COMPS,ioos:station:USF.COMPS:ARP:1,2016-07-01T06:48:00Z,28.4330,-82.6670,95.67,1111122 
COMPS,ioos:station:USF.COMPS:ARP:1,2016-07-01T06:54:00Z,28.4330,-82.6670,95.55,1111122 
COMPS,ioos:station:USF.COMPS:ARP:1,2016-07-01T07:00:00Z,28.4330,-82.6670,95.54,1111122 
COMPS,ioos:station:USF.COMPS:ARP:1,2016-07-01T07:06:00Z,28.4330,-82.6670,95.41,1111122 
COMPS,ioos:station:USF.COMPS:ARP:1,2016-07-01T07:12:00Z,28.4330,-82.6670,95.26,1111122 
COMPS,ioos:station:USF.COMPS:ARP:1,2016-07-01T07:18:00Z,28.4330,-82.6670,95.18,1111122 
COMPS,ioos:station:USF.COMPS:ARP:1,2016-07-01T07:24:00Z,28.4330,-82.6670,95.08,1111122 
COMPS,ioos:station:USF.COMPS:ARP:1,2016-07-01T07:30:00Z,28.4330,-82.6670,95.1,1111122 
COMPS,ioos:station:USF.COMPS:ARP:1,2016-07-01T07:36:00Z,28.4330,-82.6670,94.97,1111122 
COMPS,ioos:station:USF.COMPS:ARP:1,2016-07-01T07:42:00Z,28.4330,-82.6670,94.87,1111122 
COMPS,ioos:station:USF.COMPS:ARP:1,2016-07-01T07:48:00Z,28.4330,-82.6670,94.94,1111122 
COMPS,ioos:station:USF.COMPS:ARP:1,2016-07-01T07:54:00Z,28.4330,-82.6670,94.98,1111122 
COMPS,ioos:station:USF.COMPS:ARP:1,2016-07-01T08:00:00Z,28.4330,-82.6670,95.09,1111122 
COMPS,ioos:station:USF.COMPS:ARP:1,2016-07-01T08:06:00Z,28.4330,-82.6670,95.14,1111122 
COMPS,ioos:station:USF.COMPS:ARP:1,2016-07-01T08:12:00Z,28.4330,-82.6670,95.17,1111122 
COMPS,ioos:station:USF.COMPS:ARP:1,2016-07-01T08:18:00Z,28.4330,-82.6670,95.18,1111122 
COMPS,ioos:station:USF.COMPS:ARP:1,2016-07-01T08:24:00Z,28.4330,-82.6670,95.18,1111122 
COMPS,ioos:station:USF.COMPS:ARP:1,2016-07-01T08:30:00Z,28.4330,-82.6670,95.18,1111122 
COMPS,ioos:station:USF.COMPS:ARP:1,2016-07-01T08:36:00Z,28.4330,-82.6670,95.28,1111122 
COMPS,ioos:station:USF.COMPS:ARP:1,2016-07-01T08:42:00Z,28.4330,-82.6670,95.4,1111122 
COMPS,ioos:station:USF.COMPS:ARP:1,2016-07-01T08:48:00Z,28.4330,-82.6670,95.47,1111122 
COMPS,ioos:station:USF.COMPS:ARP:1,2016-07-01T08:54:00Z,28.4330,-82.6670,95.5,1111122 
COMPS,ioos:station:USF.COMPS:ARP:1,2016-07-01T09:00:00Z,28.4330,-82.6670,95.55,1111122 
COMPS,ioos:station:USF.COMPS:ARP:1,2016-07-01T09:06:00Z,28.4330,-82.6670,95.64,1111122 
COMPS,ioos:station:USF.COMPS:ARP:1,2016-07-01T09:12:00Z,28.4330,-82.6670,95.72,1111122 
COMPS,ioos:station:USF.COMPS:ARP:1,2016-07-01T09:18:00Z,28.4330,-82.6670,95.81,1111122 
COMPS,ioos:station:USF.COMPS:ARP:1,2016-07-01T09:24:00Z,28.4330,-82.6670,95.95,1111122 
COMPS,ioos:station:USF.COMPS:ARP:1,2016-07-01T09:30:00Z,28.4330,-82.6670,95.9,1111122 
COMPS,ioos:station:USF.COMPS:ARP:1,2016-07-01T09:36:00Z,28.4330,-82.6670,95.92,1111122 
COMPS,ioos:station:USF.COMPS:ARP:1,2016-07-01T09:42:00Z,28.4330,-82.6670,96.0,1111122 
COMPS,ioos:station:USF.COMPS:ARP:1,2016-07-01T09:48:00Z,28.4330,-82.6670,95.96,1111122 
COMPS,ioos:station:USF.COMPS:ARP:1,2016-07-01T09:54:00Z,28.4330,-82.6670,95.91,1111122 
COMPS,ioos:station:USF.COMPS:ARP:1,2016-07-01T10:00:00Z,28.4330,-82.6670,96.04,1111122 
COMPS,ioos:station:USF.COMPS:ARP:1,2016-07-01T10:06:00Z,28.4330,-82.6670,95.97,1111122 
COMPS,ioos:station:USF.COMPS:ARP:1,2016-07-01T10:12:00Z,28.4330,-82.6670,95.95,1111122 
COMPS,ioos:station:USF.COMPS:ARP:1,2016-07-01T10:18:00Z,28.4330,-82.6670,96.07,1111122 
COMPS,ioos:station:USF.COMPS:ARP:1,2016-07-01T10:24:00Z,28.4330,-82.6670,96.07,1111122 
COMPS,ioos:station:USF.COMPS:ARP:1,2016-07-01T10:30:00Z,28.4330,-82.6670,96.22,1111122 
COMPS,ioos:station:USF.COMPS:ARP:1,2016-07-01T10:36:00Z,28.4330,-82.6670,96.19,1111122 
COMPS,ioos:station:USF.COMPS:ARP:1,2016-07-01T10:42:00Z,28.4330,-82.6670,96.18,1111122 
COMPS,ioos:station:USF.COMPS:ARP:1,2016-07-01T10:48:00Z,28.4330,-82.6670,96.15,1111122 
COMPS,ioos:station:USF.COMPS:ARP:1,2016-07-01T10:54:00Z,28.4330,-82.6670,95.95,1111122 
COMPS,ioos:station:USF.COMPS:ARP:1,2016-07-01T11:00:00Z,28.4330,-82.6670,95.89,1111122 
COMPS,ioos:station:USF.COMPS:ARP:1,2016-07-01T11:06:00Z,28.4330,-82.6670,95.88,1111122 
COMPS,ioos:station:USF.COMPS:ARP:1,2016-07-01T11:12:00Z,28.4330,-82.6670,95.85,1111122 
COMPS,ioos:station:USF.COMPS:ARP:1,2016-07-01T11:18:00Z,28.4330,-82.6670,95.76,1111122 
COMPS,ioos:station:USF.COMPS:ARP:1,2016-07-01T11:24:00Z,28.4330,-82.6670,95.7,1111122 
COMPS,ioos:station:USF.COMPS:ARP:1,2016-07-01T11:30:00Z,28.4330,-82.6670,95.51,1111122 
COMPS,ioos:station:USF.COMPS:ARP:1,2016-07-01T11:36:00Z,28.4330,-82.6670,95.55,1111122 
COMPS,ioos:station:USF.COMPS:ARP:1,2016-07-01T11:42:00Z,28.4330,-82.6670,95.17,1111122 
COMPS,ioos:station:USF.COMPS:ARP:1,2016-07-01T11:48:00Z,28.4330,-82.6670,94.88,1111122 
COMPS,ioos:station:USF.COMPS:ARP:1,2016-07-01T11:54:00Z,28.4330,-82.6670,94.39,1111122 
COMPS,ioos:station:USF.COMPS:ARP:1,2016-07-01T12:00:00Z,28.4330,-82.6670,93.68,1111122 
COMPS,ioos:station:USF.COMPS:ARP:1,2016-07-01T12:06:00Z,28.4330,-82.6670,92.29,1111122 
COMPS,ioos:station:USF.COMPS:ARP:1,2016-07-01T12:12:00Z,28.4330,-82.6670,91.56,1111122 
COMPS,ioos:station:USF.COMPS:ARP:1,2016-07-01T12:18:00Z,28.4330,-82.6670,90.64,1111122 
COMPS,ioos:station:USF.COMPS:ARP:1,2016-07-01T12:24:00Z,28.4330,-82.6670,89.06,1111122 
COMPS,ioos:station:USF.COMPS:ARP:1,2016-07-01T12:30:00Z,28.4330,-82.6670,86.87,1111122 
COMPS,ioos:station:USF.COMPS:ARP:1,2016-07-01T12:36:00Z,28.4330,-82.6670,86.64,1111122 
COMPS,ioos:station:USF.COMPS:ARP:1,2016-07-01T12:42:00Z,28.4330,-82.6670,84.85,1111122 
COMPS,ioos:station:USF.COMPS:ARP:1,2016-07-01T12:48:00Z,28.4330,-82.6670,82.7,1111122 
COMPS,ioos:station:USF.COMPS:ARP:1,2016-07-01T12:54:00Z,28.4330,-82.6670,77.48,1111122 
COMPS,ioos:station:USF.COMPS:ARP:1,2016-07-01T13:00:00Z,28.4330,-82.6670,75.3,1111122 
COMPS,ioos:station:USF.COMPS:ARP:1,2016-07-01T13:06:00Z,28.4330,-82.6670,75.13,1111122 
COMPS,ioos:station:USF.COMPS:ARP:1,2016-07-01T13:12:00Z,28.4330,-82.6670,76.46,1111122 
COMPS,ioos:station:USF.COMPS:ARP:1,2016-07-01T13:18:00Z,28.4330,-82.6670,74.54,1111122 
COMPS,ioos:station:USF.COMPS:ARP:1,2016-07-01T13:24:00Z,28.4330,-82.6670,74.49,1111122 
COMPS,ioos:station:USF.COMPS:ARP:1,2016-07-01T13:30:00Z,28.4330,-82.6670,73.87,1111122 
COMPS,ioos:station:USF.COMPS:ARP:1,2016-07-01T13:36:00Z,28.4330,-82.6670,72.66,1111122 
COMPS,ioos:station:USF.COMPS:ARP:1,2016-07-01T13:42:00Z,28.4330,-82.6670,73.75,1111122 
COMPS,ioos:station:USF.COMPS:ARP:1,2016-07-01T13:48:00Z,28.4330,-82.6670,72.0,1111122 
COMPS,ioos:station:USF.COMPS:ARP:1,2016-07-01T13:54:00Z,28.4330,-82.6670,71.49,1111122 
COMPS,ioos:station:USF.COMPS:ARP:1,2016-07-01T14:00:00Z,28.4330,-82.6670,69.94,1111122 
COMPS,ioos:station:USF.COMPS:ARP:1,2016-07-01T14:06:00Z,28.4330,-82.6670,71.04,1111122 
COMPS,ioos:station:USF.COMPS:ARP:1,2016-07-01T14:12:00Z,28.4330,-82.6670,68.03,1111122 
COMPS,ioos:station:USF.COMPS:ARP:1,2016-07-01T14:18:00Z,28.4330,-82.6670,67.99,1111122 
COMPS,ioos:station:USF.COMPS:ARP:1,2016-07-01T14:24:00Z,28.4330,-82.6670,68.99,1111122 
COMPS,ioos:station:USF.COMPS:ARP:1,2016-07-01T14:30:00Z,28.4330,-82.6670,69.67,1111122 
COMPS,ioos:station:USF.COMPS:ARP:1,2016-07-01T14:36:00Z,28.4330,-82.6670,72.08,1111122 
COMPS,ioos:station:USF.COMPS:ARP:1,2016-07-01T14:42:00Z,28.4330,-82.6670,72.6,1111122 
COMPS,ioos:station:USF.COMPS:ARP:1,2016-07-01T14:48:00Z,28.4330,-82.6670,72.2,1111122 
COMPS,ioos:station:USF.COMPS:ARP:1,2016-07-01T14:54:00Z,28.4330,-82.6670,71.35,1111122 
COMPS,ioos:station:USF.COMPS:ARP:1,2016-07-01T15:00:00Z,28.4330,-82.6670,72.72,1111122 
COMPS,ioos:station:USF.COMPS:ARP:1,2016-07-01T15:06:00Z,28.4330,-82.6670,73.85,1111122 
COMPS,ioos:station:USF.COMPS:ARP:1,2016-07-01T15:12:00Z,28.4330,-82.6670,74.27,1111122 
COMPS,ioos:station:USF.COMPS:ARP:1,2016-07-01T15:18:00Z,28.4330,-82.6670,75.13,1111122 
COMPS,ioos:station:USF.COMPS:ARP:1,2016-07-01T15:24:00Z,28.4330,-82.6670,74.36,1111122 
COMPS,ioos:station:USF.COMPS:ARP:1,2016-07-01T15:30:00Z,28.4330,-82.6670,74.9,1111122 
COMPS,ioos:station:USF.COMPS:ARP:1,2016-07-01T15:36:00Z,28.4330,-82.6670,74.3,1111122 
COMPS,ioos:station:USF.COMPS:ARP:1,2016-07-01T15:42:00Z,28.4330,-82.6670,72.55,1111122 
COMPS,ioos:station:USF.COMPS:ARP:1,2016-07-01T15:48:00Z,28.4330,-82.6670,71.48,1111122 
COMPS,ioos:station:USF.COMPS:ARP:1,2016-07-01T15:54:00Z,28.4330,-82.6670,72.17,1111122 
COMPS,ioos:station:USF.COMPS:ARP:1,2016-07-01T16:00:00Z,28.4330,-82.6670,71.09,1111122 
COMPS,ioos:station:USF.COMPS:ARP:1,2016-07-01T16:06:00Z,28.4330,-82.6670,75.0,1111122 
COMPS,ioos:station:USF.COMPS:ARP:1,2016-07-01T16:12:00Z,28.4330,-82.6670,76.5,1111122 
COMPS,ioos:station:USF.COMPS:ARP:1,2016-07-01T16:18:00Z,28.4330,-82.6670,76.76,1111122 
COMPS,ioos:station:USF.COMPS:ARP:1,2016-07-01T16:24:00Z,28.4330,-82.6670,70.5,1111122 
COMPS,ioos:station:USF.COMPS:ARP:1,2016-07-01T16:30:00Z,28.4330,-82.6670,66.45,1111122 
COMPS,ioos:station:USF.COMPS:ARP:1,2016-07-01T16:36:00Z,28.4330,-82.6670,71.82,1111122 
COMPS,ioos:station:USF.COMPS:ARP:1,2016-07-01T16:42:00Z,28.4330,-82.6670,72.93,1111122 
COMPS,ioos:station:USF.COMPS:ARP:1,2016-07-01T16:48:00Z,28.4330,-82.6670,72.65,1111122 
COMPS,ioos:station:USF.COMPS:ARP:1,2016-07-01T16:54:00Z,28.4330,-82.6670,73.04,1111122 
COMPS,ioos:station:USF.COMPS:ARP:1,2016-07-01T17:00:00Z,28.4330,-82.6670,73.74,1111122 
COMPS,ioos:station:USF.COMPS:ARP:1,2016-07-01T17:06:00Z,28.4330,-82.6670,73.86,1111122 
COMPS,ioos:station:USF.COMPS:ARP:1,2016-07-01T17:12:00Z,28.4330,-82.6670,74.98,1111122 
COMPS,ioos:station:USF.COMPS:ARP:1,2016-07-01T17:18:00Z,28.4330,-82.6670,75.43,1111122 
COMPS,ioos:station:USF.COMPS:ARP:1,2016-07-01T17:24:00Z,28.4330,-82.6670,75.65,1111122 
COMPS,ioos:station:USF.COMPS:ARP:1,2016-07-01T17:30:00Z,28.4330,-82.6670,74.19,1111122 
COMPS,ioos:station:USF.COMPS:ARP:1,2016-07-01T17:36:00Z,28.4330,-82.6670,73.73,1111122 
COMPS,ioos:station:USF.COMPS:ARP:1,2016-07-01T17:42:00Z,28.4330,-82.6670,73.67,1111122 
COMPS,ioos:station:USF.COMPS:ARP:1,2016-07-01T17:48:00Z,28.4330,-82.6670,73.26,1111122 
COMPS,ioos:station:USF.COMPS:ARP:1,2016-07-01T17:54:00Z,28.4330,-82.6670,74.94,1111122 
COMPS,ioos:station:USF.COMPS:ARP:1,2016-07-01T18:00:00Z,28.4330,-82.6670,74.43,1111122 
COMPS,ioos:station:USF.COMPS:ARP:1,2016-07-01T18:06:00Z,28.4330,-82.6670,74.58,1111122 
COMPS,ioos:station:USF.COMPS:ARP:1,2016-07-01T18:12:00Z,28.4330,-82.6670,74.62,1111122 
COMPS,ioos:station:USF.COMPS:ARP:1,2016-07-01T18:18:00Z,28.4330,-82.6670,74.71,1111122 
COMPS,ioos:station:USF.COMPS:ARP:1,2016-07-01T18:24:00Z,28.4330,-82.6670,74.93,1111122 
COMPS,ioos:station:USF.COMPS:ARP:1,2016-07-01T18:30:00Z,28.4330,-82.6670,77.39,1111122 
COMPS,ioos:station:USF.COMPS:ARP:1,2016-07-01T18:36:00Z,28.4330,-82.6670,77.75,1111122 
COMPS,ioos:station:USF.COMPS:ARP:1,2016-07-01T18:42:00Z,28.4330,-82.6670,78.97,1111122 
COMPS,ioos:station:USF.COMPS:ARP:1,2016-07-01T18:48:00Z,28.4330,-82.6670,79.66,1111122 
COMPS,ioos:station:USF.COMPS:ARP:1,2016-07-01T18:54:00Z,28.4330,-82.6670,78.51,1111122 
COMPS,ioos:station:USF.COMPS:ARP:1,2016-07-01T19:00:00Z,28.4330,-82.6670,78.69,1111122 
COMPS,ioos:station:USF.COMPS:ARP:1,2016-07-01T19:06:00Z,28.4330,-82.6670,78.1,1111122 
COMPS,ioos:station:USF.COMPS:ARP:1,2016-07-01T19:12:00Z,28.4330,-82.6670,77.86,1111122 
COMPS,ioos:station:USF.COMPS:ARP:1,2016-07-01T19:18:00Z,28.4330,-82.6670,77.14,1111122 
COMPS,ioos:station:USF.COMPS:ARP:1,2016-07-01T19:24:00Z,28.4330,-82.6670,77.6,1111122 
COMPS,ioos:station:USF.COMPS:ARP:1,2016-07-01T19:30:00Z,28.4330,-82.6670,77.52,1111122 
COMPS,ioos:station:USF.COMPS:ARP:1,2016-07-01T19:36:00Z,28.4330,-82.6670,76.48,1111122 
COMPS,ioos:station:USF.COMPS:ARP:1,2016-07-01T19:42:00Z,28.4330,-82.6670,75.69,1111122 
COMPS,ioos:station:USF.COMPS:ARP:1,2016-07-01T19:48:00Z,28.4330,-82.6670,76.15,1111122 
COMPS,ioos:station:USF.COMPS:ARP:1,2016-07-01T19:54:00Z,28.4330,-82.6670,75.9,1111122 
COMPS,ioos:station:USF.COMPS:ARP:1,2016-07-01T20:00:00Z,28.4330,-82.6670,75.66,1111122 
COMPS,ioos:station:USF.COMPS:ARP:1,2016-07-01T20:06:00Z,28.4330,-82.6670,74.0,1111122 
COMPS,ioos:station:USF.COMPS:ARP:1,2016-07-01T20:12:00Z,28.4330,-82.6670,74.09,1111122 
COMPS,ioos:station:USF.COMPS:ARP:1,2016-07-01T20:18:00Z,28.4330,-82.6670,73.2,1111122 
COMPS,ioos:station:USF.COMPS:ARP:1,2016-07-01T20:24:00Z,28.4330,-82.6670,73.8,1111122 
COMPS,ioos:station:USF.COMPS:ARP:1,2016-07-01T20:30:00Z,28.4330,-82.6670,73.41,1111122 
COMPS,ioos:station:USF.COMPS:ARP:1,2016-07-01T20:36:00Z,28.4330,-82.6670,73.68,1111122 
COMPS,ioos:station:USF.COMPS:ARP:1,2016-07-01T20:42:00Z,28.4330,-82.6670,73.53,1111122 
COMPS,ioos:station:USF.COMPS:ARP:1,2016-07-01T20:48:00Z,28.4330,-82.6670,72.97,1111122 
COMPS,ioos:station:USF.COMPS:ARP:1,2016-07-01T20:54:00Z,28.4330,-82.6670,72.42,1111122 
COMPS,ioos:station:USF.COMPS:ARP:1,2016-07-01T21:00:00Z,28.4330,-82.6670,72.53,1111122 
COMPS,ioos:station:USF.COMPS:ARP:1,2016-07-01T21:06:00Z,28.4330,-82.6670,72.81,1111122 
COMPS,ioos:station:USF.COMPS:ARP:1,2016-07-01T21:12:00Z,28.4330,-82.6670,73.18,1111122 
COMPS,ioos:station:USF.COMPS:ARP:1,2016-07-01T21:18:00Z,28.4330,-82.6670,73.61,1111122 
COMPS,ioos:station:USF.COMPS:ARP:1,2016-07-01T21:24:00Z,28.4330,-82.6670,73.31,1111122 
COMPS,ioos:station:USF.COMPS:ARP:1,2016-07-01T21:30:00Z,28.4330,-82.6670,72.22,1111122 
COMPS,ioos:station:USF.COMPS:ARP:1,2016-07-01T21:36:00Z,28.4330,-82.6670,71.23,1111122 
COMPS,ioos:station:USF.COMPS:ARP:1,2016-07-01T21:42:00Z,28.4330,-82.6670,71.86,1111122 
COMPS,ioos:station:USF.COMPS:ARP:1,2016-07-01T21:48:00Z,28.4330,-82.6670,71.17,1111122 
COMPS,ioos:station:USF.COMPS:ARP:1,2016-07-01T21:54:00Z,28.4330,-82.6670,71.86,1111122 
COMPS,ioos:station:USF.COMPS:ARP:1,2016-07-01T22:00:00Z,28.4330,-82.6670,71.63,1111122 
COMPS,ioos:station:USF.COMPS:ARP:1,2016-07-01T22:06:00Z,28.4330,-82.6670,71.23,1111122 
COMPS,ioos:station:USF.COMPS:ARP:1,2016-07-01T22:12:00Z,28.4330,-82.6670,71.99,1111122 
COMPS,ioos:station:USF.COMPS:ARP:1,2016-07-01T22:18:00Z,28.4330,-82.6670,71.08,1111122 
COMPS,ioos:station:USF.COMPS:ARP:1,2016-07-01T22:24:00Z,28.4330,-82.6670,71.06,1111122 
COMPS,ioos:station:USF.COMPS:ARP:1,2016-07-01T22:30:00Z,28.4330,-82.6670,71.05,1111122 
COMPS,ioos:station:USF.COMPS:ARP:1,2016-07-01T22:36:00Z,28.4330,-82.6670,70.1,1111122 
COMPS,ioos:station:USF.COMPS:ARP:1,2016-07-01T22:42:00Z,28.4330,-82.6670,69.55,1111122 
COMPS,ioos:station:USF.COMPS:ARP:1,2016-07-01T22:48:00Z,28.4330,-82.6670,69.72,1111122 
COMPS,ioos:station:USF.COMPS:ARP:1,2016-07-01T22:54:00Z,28.4330,-82.6670,69.64,1111122 
COMPS,ioos:station:USF.COMPS:ARP:1,2016-07-01T23:00:00Z,28.4330,-82.6670,68.26,1111122 
COMPS,ioos:station:USF.COMPS:ARP:1,2016-07-01T23:06:00Z,28.4330,-82.6670,68.48,1111122 
COMPS,ioos:station:USF.COMPS:ARP:1,2016-07-01T23:12:00Z,28.4330,-82.6670,69.91,1111122 
COMPS,ioos:station:USF.COMPS:ARP:1,2016-07-01T23:18:00Z,28.4330,-82.6670,70.73,1111122 
COMPS,ioos:station:USF.COMPS:ARP:1,2016-07-01T23:24:00Z,28.4330,-82.6670,71.61,1111122 
COMPS,ioos:station:USF.COMPS:ARP:1,2016-07-01T23:30:00Z,28.4330,-82.6670,71.1,1111122 
COMPS,ioos:station:USF.COMPS:ARP:1,2016-07-01T23:36:00Z,28.4330,-82.6670,71.37,1111122 
COMPS,ioos:station:USF.COMPS:ARP:1,2016-07-01T23:42:00Z,28.4330,-82.6670,72.38,1111122 
COMPS,ioos:station:USF.COMPS:ARP:1,2016-07-01T23:48:00Z,28.4330,-82.6670,72.29,1111122 
COMPS,ioos:station:USF.COMPS:ARP:1,2016-07-01T23:54:00Z,28.4330,-82.6670,72.08,1111122 
COMPS,ioos:station:USF.COMPS:ARP:1,2016-07-02T00:00:00Z,28.4330,-82.6670,71.91,1111122 
COMPS,ioos:station:USF.COMPS:ARP:1,2016-07-02T00:06:00Z,28.4330,-82.6670,72.18,1111122 
COMPS,ioos:station:USF.COMPS:ARP:1,2016-07-02T00:12:00Z,28.4330,-82.6670,72.79,1111122 
COMPS,ioos:station:USF.COMPS:ARP:1,2016-07-02T00:18:00Z,28.4330,-82.6670,72.47,1111122 
COMPS,ioos:station:USF.COMPS:ARP:1,2016-07-02T00:24:00Z,28.4330,-82.6670,72.77,1111122 
COMPS,ioos:station:USF.COMPS:ARP:1,2016-07-02T00:30:00Z,28.4330,-82.6670,74.15,1111122 
COMPS,ioos:station:USF.COMPS:ARP:1,2016-07-02T00:36:00Z,28.4330,-82.6670,74.96,1111122 
COMPS,ioos:station:USF.COMPS:ARP:1,2016-07-02T00:42:00Z,28.4330,-82.6670,73.81,1111122 
COMPS,ioos:station:USF.COMPS:ARP:1,2016-07-02T00:48:00Z,28.4330,-82.6670,73.96,1111122 
COMPS,ioos:station:USF.COMPS:ARP:1,2016-07-02T00:54:00Z,28.4330,-82.6670,73.14,1111122 
COMPS,ioos:station:USF.COMPS:ARP:1,2016-07-02T01:00:00Z,28.4330,-82.6670,74.09,1111122 
COMPS,ioos:station:USF.COMPS:ARP:1,2016-07-02T01:06:00Z,28.4330,-82.6670,74.24,1111122 
COMPS,ioos:station:USF.COMPS:ARP:1,2016-07-02T01:12:00Z,28.4330,-82.6670,74.74,1111122 
COMPS,ioos:station:USF.COMPS:ARP:1,2016-07-02T01:18:00Z,28.4330,-82.6670,76.9,1111122 
COMPS,ioos:station:USF.COMPS:ARP:1,2016-07-02T01:24:00Z,28.4330,-82.6670,79.36,1111122 
COMPS,ioos:station:USF.COMPS:ARP:1,2016-07-02T01:30:00Z,28.4330,-82.6670,80.37,1111122 
COMPS,ioos:station:USF.COMPS:ARP:1,2016-07-02T01:36:00Z,28.4330,-82.6670,81.41,1111122 
COMPS,ioos:station:USF.COMPS:ARP:1,2016-07-02T01:42:00Z,28.4330,-82.6670,82.76,1111122 
COMPS,ioos:station:USF.COMPS:ARP:1,2016-07-02T01:48:00Z,28.4330,-82.6670,83.24,1111122 
COMPS,ioos:station:USF.COMPS:ARP:1,2016-07-02T01:54:00Z,28.4330,-82.6670,82.39,1111122 
COMPS,ioos:station:USF.COMPS:ARP:1,2016-07-02T02:00:00Z,28.4330,-82.6670,82.22,1111122 
COMPS,ioos:station:USF.COMPS:ARP:1,2016-07-02T02:06:00Z,28.4330,-82.6670,82.66,1111122 
COMPS,ioos:station:USF.COMPS:ARP:1,2016-07-02T02:12:00Z,28.4330,-82.6670,83.21,1111122 
COMPS,ioos:station:USF.COMPS:ARP:1,2016-07-02T02:18:00Z,28.4330,-82.6670,83.18,1111122 
COMPS,ioos:station:USF.COMPS:ARP:1,2016-07-02T02:24:00Z,28.4330,-82.6670,82.51,1111122 
COMPS,ioos:station:USF.COMPS:ARP:1,2016-07-02T02:30:00Z,28.4330,-82.6670,81.38,1111122 
COMPS,ioos:station:USF.COMPS:ARP:1,2016-07-02T02:36:00Z,28.4330,-82.6670,81.4,1111122 
COMPS,ioos:station:USF.COMPS:ARP:1,2016-07-02T02:42:00Z,28.4330,-82.6670,81.89,1111122 
COMPS,ioos:station:USF.COMPS:ARP:1,2016-07-02T02:48:00Z,28.4330,-82.6670,82.51,1111122 
COMPS,ioos:station:USF.COMPS:ARP:1,2016-07-02T02:54:00Z,28.4330,-82.6670,82.42,1111122 
COMPS,ioos:station:USF.COMPS:ARP:1,2016-07-02T03:00:00Z,28.4330,-82.6670,82.18,1111122 
COMPS,ioos:station:USF.COMPS:ARP:1,2016-07-02T03:06:00Z,28.4330,-82.6670,82.51,1111122 